Regional Weather Roundup
Issued by NWS

Home | Current Version | Previous Version | Text Only | Print | Product List | Glossary On
Versions: 1 2 3 4 5 6 7 8 9 10 11 12 13 14 15 16 17 18 19 20 21 22 23 24 25 26 27 28 29 30 31 32 33 34 35 36 37 38 39 40 41 42 43 44 45 46 47 48 49 50
000
ASUS42 KKEY 040310
RWRKEY

FLORIDA REGIONAL WEATHER ROUNDUP FOR THE FLORIDA KEYS
NATIONAL WEATHER SERVICE KEY WEST FLORIDA
1000 PM EST TUE MAR 03 2015

...SOUTH FLORIDA AND THE KEYS...

CITY           SKY/WX    TMP DP  RH WIND       PRES   REMARKS
FORT MYERS     CLEAR     69  63  81 E5        30.15R
SW REGIONAL AP CLEAR     70  62  76 E7        30.15S
NAPLES         CLEAR     72  64  76 E8        30.14S
MIAMI          MOCLDY    75  67  76 E13       30.16S
WEST KENDALL   MOCLDY    74  68  81 E12       30.16S
HOMESTEAD      PTCLDY    75  69  80 E13       30.15S
MARATHON       CLEAR     75  71  87 E7        30.14R
BOCA CHICA NAS CLEAR     75  69  81 E16       30.12R
KEY WEST INTL  CLEAR     76  70  82 E17       30.13R

...INTERNATIONAL WEATHER...

CITY           SKY/WX    TMP DP  RH WIND       PRES   REMARKS
NASSAU BAHAMAS PTCLDY    75  70  83 MISG      30.20R
CANCUN MEXICO  MOCLDY    77  72  83 SE6       30.02R
COZUMEL MEXICO PTCLDY    70  70 100 CALM      30.02R

ADJACENT COASTAL WATERS...

STATION/POSITION TIME  SKY/WX   TEMP    WIND        PRES    WAVE
                                AIR SEA DIR/SP/G            HT/PER
                 (UTC)          (F)     (DEG/KT/KT) (MB)    (FT/S)
PULASKI SHOAL LI 0200            74     100/ 12/ 13 1019.2R
SAND KEY         0250            75     100/ 17/ 19 1019.7R
SOMBRERO KEY     0300            76     100/ 19/ 20 1020.9R
LONG KEY         0200            76 78  100/ 13/ 15 1021.2R
MOLASSES REEF    0300            76 76  110/ 11/ 12 1020.9R
FOWEY ROCKS      NOT AVBL
Buoy 42080       NOT AVBL

$$



USA.gov is the U.S. government's official web portal to all federal, state and local government web resources and services.